Location: Newark
(40.2401°N, 1.4098°W)
Time: 20:42:38
(UTC+00:00)

N. Korean satellite - Pass Details

Date: 29 October 2019
Orbit: 456 x 506 km, 97.2° (Epoch: 17 November)

Event Time Altitude Azimuth Distance (km) Brightness Sun altitude
Rises 05:40:49 0° 17° (NNE) 2,592 10.4 -10.2°
Reaches altitude 10° 05:42:57 10° 23° (NNE) 1,710 9.5 -9.8°
Maximum altitude 05:46:32 49° 99° (E) 658 7.8 -9.1°
Drops below altitude 10° 05:50:07 10° 175° (S) 1,711 9.5 -8.5°
Sets 05:52:15 0° 181° (S) 2,592 10.4 -8.1°
